Location: Kellogg
(38.0159°N, 90.0546°W)
Time: 02:33:47
(UTC+00:00)

SR - Pass Details

Date: 18 September 2024
Orbit: 577 x 855 km, 66.7° (Epoch: 10 October)

Event Time Altitude Azimuth Distance (km) Brightness Sun altitude
Rises 17:19:55 0° 182° (S) 2,830 ? 52.6°
Reaches altitude 10° 17:22:23 10° 171° (S) 1,908 ? 52.7°
Maximum altitude 17:26:04 29° 111° (ESE) 1,072 ? 52.9°
Drops below altitude 10° 17:29:43 10° 51° (NE) 1,892 ? 53.0°
Sets 17:32:09 0° 40° (NE) 2,802 ? 53.1°
